CW5248 Weather Reports


Display with metric or nautical units.
time (UTC)temp
F
wind
direction
speed
MPH
gust
MPH
rain 1hr
in
rain 24hr
in
rain mn
in
humidity
%
barometer
mb
20180920185340 66 5 6.0 17.0 0.00 0.00 0.00 23 1016.3
20180920184335 66 284 9.0 15.0 0.00 0.00 0.00 23 1016.3
20180920183341 66 318 12.0 18.0 0.00 0.00 0.00 21 1016.3
20180920182331 64 286 6.0 15.0 0.00 0.00 0.00 26 1016.3
20180920181337 63 300 3.0 8.0 0.00 0.00 0.00 33 1016.4
20180920180345 63 318 4.0 11.0 0.00 0.00 0.00 34 1016.5
20180920175331 63 296 5.0 9.0 0.00 0.00 0.00 32 1016.5
20180920174340 63 274 5.0 11.0 0.00 0.00 0.00 33 1016.8
20180920173344 63 203 4.0 9.0 0.00 0.00 0.00 37 1016.9
20180920172336 63 285 8.0 11.0 0.00 0.00 0.00 38 1016.9
20180920171343 62 253 8.0 12.0 0.00 0.00 0.00 41 1017.0
20180920170330 62 295 1.0 5.0 0.00 0.00 0.00 40 1016.9
20180920165339 62 139 1.0 5.0 0.00 0.00 0.00 43 1016.9
20180920164330 61 166 1.0 5.0 0.00 0.00 0.00 44 1016.9
20180920163334 60 96 3.0 8.0 0.00 0.00 0.00 44 1017.0
20180920162344 59 143 4.0 6.0 0.00 0.00 0.00 47 1017.0
20180920161336 57 155 3.0 6.0 0.00 0.00 0.00 49 1017.0
20180920160343 57 277 2.0 5.0 0.00 0.00 0.00 49 1016.9
20180920155330 56 119 3.0 4.0 0.00 0.00 0.00 49 1016.9
20180920154336 56 142 3.0 7.0 0.00 0.00 0.00 50 1016.9
20180920153346 56 196 2.0 8.0 0.00 0.00 0.00 50 1016.9
20180920152332 55 161 1.0 3.0 0.00 0.00 0.00 50 1016.9
20180920151341 55 108 2.0 4.0 0.00 0.00 0.00 51 1016.9
20180920150347 54 121 2.0 3.0 0.00 0.00 0.00 52 1016.6
20180920145338 54 23 1.0 3.0 0.00 0.00 0.00 52 1016.6
20180920144328 54 215 1.0 3.0 0.00 0.00 0.00 54 1016.3
20180920143338 54 200 1.0 2.0 0.00 0.00 0.00 56 1016.3
20180920142329 53 200 1.0 5.0 0.00 0.00 0.00 51 1016.3
20180920141343 53 302 0.0 2.0 0.00 0.00 0.00 53 1016.3
20180920140345 53 232 0.0 3.0 0.00 0.00 0.00 52 1015.7
20180920135333 53 355 2.0 4.0 0.00 0.00 0.00 52 1015.7
20180920134338 53 49 1.0 3.0 0.00 0.00 0.00 54 1015.6
20180920133331 53 109 1.0 3.0 0.00 0.00 0.00 52 1015.6
20180920132337 53 111 3.0 5.0 0.00 0.00 0.00 51 1015.6
20180920131343 53 69 3.0 6.0 0.00 0.00 0.00 52 1015.0
20180920130331 52 113 3.0 10.0 0.00 0.00 0.00 53 1015.5
20180920125337 52 106 4.0 7.0 0.00 0.00 0.00 55 1015.5
20180920124343 52 165 2.0 8.0 0.00 0.00 0.00 56 1015.0
20180920123328 51 106 5.0 8.0 0.00 0.00 0.00 58 1015.1
20180920122343 51 126 5.0 10.0 0.00 0.00 0.00 60 1015.1
20180920121345 50 132 4.0 7.0 0.00 0.00 0.00 62 1015.6
20180920120330 50 134 4.0 10.0 0.00 0.00 0.00 64 1015.6
20180920115348 50 132 4.0 8.0 0.00 0.00 0.00 66 1015.6
20180920114331 50 138 4.0 10.0 0.00 0.00 0.00 66 1016.0
20180920113335 50 122 4.0 6.0 0.00 0.00 0.00 67 1016.2
20180920112341 50 135 2.0 6.0 0.00 0.00 0.00 68 1016.2
20180920111331 50 128 4.0 8.0 0.00 0.00 0.00 70 1016.3
20180920110341 50 165 3.0 6.0 0.00 0.00 0.00 70 1016.3
20180920105349 50 182 3.0 5.0 0.00 0.00 0.00 70 1016.3
20180920104335 50 133 1.0 6.0 0.00 0.00 0.00 70 1016.4
20180920103343 50 124 2.0 6.0 0.00 0.00 0.00 70 1016.5
20180920102335 50 121 2.0 8.0 0.00 0.00 0.00 72 1016.5
20180920101341 50 126 4.0 7.0 0.00 0.00 0.00 73 1016.7
20180920100327 50 100 3.0 6.0 0.00 0.00 0.00 74 1016.9
20180920095337 50 82 3.0 8.0 0.00 0.00 0.00 76 1016.9
20180920094327 50 139 2.0 12.0 0.00 0.00 0.00 76 1017.0
20180920093335 50 161 4.0 9.0 0.00 0.00 0.00 76 1017.0
20180920092347 51 200 3.0 11.0 0.00 0.00 0.00 76 1017.0
20180920091337 51 170 2.0 6.0 0.00 0.00 0.00 77 1017.2
20180920090341 51 309 3.0 8.0 0.00 0.00 0.00 77 1017.5
20180920085328 51 163 2.0 6.0 0.00 0.00 0.00 77 1017.5
20180920084337 52 187 3.0 7.0 0.00 0.00 0.00 76 1017.5
20180920083329 52 304 3.0 8.0 0.00 0.00 0.00 76 1017.6
20180920082339 53 225 1.0 4.0 0.00 0.00 0.00 75 1017.6
20180920081343 53 227 3.0 11.0 0.00 0.00 0.00 74 1017.6
20180920080348 54 265 2.0 10.0 0.00 0.00 0.00 72 1017.6
20180920075339 54 239 2.0 5.0 0.00 0.00 0.00 70 1017.6
20180920074344 55 182 2.0 8.0 0.00 0.00 0.00 69 1017.3
20180920073332 55 207 4.0 7.0 0.00 0.00 0.00 66 1016.9
20180920072340 54 296 2.0 4.0 0.00 0.00 0.00 65 1016.9
20180920071330 54 348 1.0 4.0 0.00 0.00 0.00 66 1016.5
20180920070335 54 347 1.0 4.0 0.00 0.00 0.00 67 1016.3
20180920065342 54 5 0.0 3.0 0.00 0.00 0.00 69 1016.3
20180920064330 54 360 0.0 3.0 0.00 0.00 0.00 68 1016.3
20180920063340 54 321 1.0 2.0 0.00 0.00 0.00 67 1016.3
20180920062331 54 317 0.0 1.0 0.00 0.00 0.00 66 1016.3
20180920061337 54 317 0.0 1.0 0.00 0.00 0.00 67 1016.3
20180920060342 54 317 0.0 1.0 0.00 0.00 0.00 68 1016.6
20180920055329 54 317 1.0 2.0 0.00 0.00 0.00 68 1016.6
20180920054338 55 317 0.0 1.0 0.00 0.00 0.00 67 1016.4
20180920053342 55 317 0.0 1.0 0.00 0.00 0.00 67 1016.8
20180920052335 55 317 0.0 1.0 0.00 0.00 0.00 67 1016.8
20180920051340 55 317 0.0 2.0 0.00 0.00 0.00 68 1016.6
20180920050347 55 317 1.0 2.0 0.00 0.00 0.00 68 1016.8
20180920045333 56 279 1.0 3.0 0.00 0.00 0.00 67 1016.8
20180920044345 56 269 2.0 3.0 0.00 0.00 0.00 65 1016.9
20180920043329 56 109 0.0 1.0 0.00 0.00 0.00 63 1017.3
20180920042339 56 109 1.0 3.0 0.00 0.00 0.00 63 1017.3
20180920041344 57 207 0.0 2.0 0.00 0.00 0.00 63 1017.5
20180920040335 57 259 1.0 2.0 0.00 0.00 0.00 62 1017.5
20180920035340 57 259 1.0 2.0 0.00 0.00 0.00 61 1017.5
20180920034329 57 257 1.0 5.0 0.00 0.00 0.00 61 1017.5
20180920033335 58 281 4.0 5.0 0.00 0.00 0.00 60 1017.6
20180920032326 59 286 0.0 5.0 0.00 0.00 0.00 57 1017.6
20180920031334 59 303 1.0 4.0 0.00 0.00 0.00 55 1017.5
20180920030341 60 304 2.0 4.0 0.00 0.00 0.00 53 1017.4
20180920025348 60 229 1.0 2.0 0.00 0.00 0.00 51 1017.4
20180920024338 60 211 2.0 3.0 0.00 0.00 0.00 49 1016.9
20180920023345 61 312 2.0 4.0 0.00 0.00 0.00 48 1016.9
20180920022331 61 331 1.0 6.0 0.00 0.00 0.00 47 1016.9
20180920021339 62 298 1.0 4.0 0.00 0.00 0.00 41 1016.8
20180920020331 62 223 0.0 3.0 0.00 0.00 0.00 38 1016.4
20180920015336 62 305 1.0 4.0 0.00 0.00 0.00 38 1016.4
20180920014345 63 305 3.0 4.0 0.00 0.00 0.00 37 1016.3
20180920013334 63 55 1.0 3.0 0.00 0.00 0.00 36 1016.5
20180920012341 63 71 1.0 4.0 0.00 0.00 0.00 35 1016.5
20180920011331 64 316 0.0 2.0 0.00 0.00 0.00 34 1016.5
20180920010334 64 311 1.0 2.0 0.00 0.00 0.00 34 1016.8
20180920005344 64 309 1.0 3.0 0.00 0.00 0.00 33 1016.8
20180920004331 65 355 2.0 3.0 0.00 0.00 0.00 33 1016.9
20180920003335 65 340 1.0 5.0 0.00 0.00 0.00 33 1017.3
20180920002343 65 299 2.0 4.0 0.00 0.00 0.00 33 1017.3
20180920001333 66 355 0.0 4.0 0.00 0.00 0.00 32 1017.6
20180920000337 66 264 3.0 9.0 0.00 0.00 0.00 32 1017.6
20180919235328 66 292 5.0 8.0 0.00 0.00 0.00 32 1017.6
20180919234338 67 48 3.0 17.0 0.00 0.00 0.00 32 1017.5
20180919233347 68 317 7.0 14.0 0.00 0.00 0.00 30 1017.0
20180919232335 69 311 3.0 23.0 0.00 0.00 0.00 32 1017.0
20180919231344 71 305 8.0 18.0 0.00 0.00 0.00 27 1016.4
20180919230329 72 282 6.0 14.0 0.00 0.00 0.00 24 1016.3
20180919213330 76 172 5.0 12.0 0.00 0.00 0.00 16 1015.5
20180919212335 77 120 7.0 14.0 0.00 0.00 0.00 15 1015.5
20180919211343 78 172 5.0 13.0 0.00 0.00 0.00 15 1015.5
20180919210329 79 148 7.0 15.0 0.00 0.00 0.00 14 1015.6
20180919205341 80 183 9.0 13.0 0.00 0.00 0.00 13 1015.6
20180919204346 81 178 4.0 13.0 0.00 0.00 0.00 12 1015.6
20180919203331 83 184 5.0 12.0 0.00 0.00 0.00 11 1015.7
20180919202337 84 207 7.0 13.0 0.00 0.00 0.00 11 1015.7
20180919201329 84 148 6.0 12.0 0.00 0.00 0.00 11 1016.2
20180919200334 85 259 6.0 13.0 0.00 0.00 0.00 11 1016.3
20180919195343 84 281 7.0 11.0 0.00 0.00 0.00 11 1016.3
20180919194333 83 184 4.0 10.0 0.00 0.00 0.00 11 1016.6
20180919193336 81 153 2.0 6.0 0.00 0.00 0.00 12 1016.9
20180919192344 81 138 3.0 9.0 0.00 0.00 0.00 12 1016.9
20180919191333 81 225 1.0 12.0 0.00 0.00 0.00 11 1017.2
20180919190344 82 86 3.0 11.0 0.00 0.00 0.00 11 1017.6